[[{"header":{"parameterUnit":"m.s-1","parameterCategory":2,"la1":30.2991,"la2":30.254,"lo1":-89.0895,"lo2":-89.0444,"dy":0.0017,"dx":0.0017,"nx":28,"ny":28,"refTime":"2024-05-02T21:00:00:Z","depth":"0","parameterNumber":2,"parameterNumberName":"U-component_of_CURRENTS"},"data":[0,0,0,0,0,0,0,0,0,0,0,0,0,0,0,0,0,0,0,0,0,0,0,0,0,0,0,0,0,0,0,0,0,0,0,0,0,0,0,0,0,0,0,0,0,0,0,0,0,0,0,0,0,0,0,0,0,0,0.176,0.176,0,0.176,0.176,0.176,0.1759,0.1759,0.1759,0.176,0.1749,0.1749,0.1748,0,0,0,0,0,0,0,0,0,0,0,0,0,0.1734,0.1735,0.176,0.176,0.1761,0.176,0.176,0.176,0.1759,0.1759,0.1759,0.176,0.1749,0.1749,0.1748,0,0,0,0,0,0,0,0,0,0,0,0,0,0.174,0.1735,0.176,0.1761,0.1761,0.176,0.176,0.176,0.1759,0.1759,0.1759,0.176,0.1749,0.1749,0.1748,0.1741,0,0,0.1747,0.1746,0,0,0,0,0,0,0,0,0.174,0.1741,0.1761,0.1761,0.1761,0.1761,0.1747,0.1754,0.1759,0.1759,0.176,0.176,0.1753,0.1752,0.175,0.1741,0.174,0.1747,0.1746,0.1746,0.1746,0,0,0,0,0,0,0,0.1739,0.174,0.1759,0.1761,0.1761,0.1753,0.1754,0.1748,0.1753,0.1759,0.1759,0.1761,0.1753,0.175,0.175,0.174,0.1747,0.1746,0.1746,0.1745,0.1773,0.1775,0,0,0,0,0,0,0.1743,0.174,0.1759,0.1759,0.1752,0.1754,0.1755,0.176,0.1754,0.1754,0.1761,0.1761,0.1751,0.175,0.1749,0.1798,0.1746,0.1745,0.1745,0.1772,0.1774,0.1775,0,0,0,0,0,0,0.1743,0.1745,0.1759,0.175,0.1752,0.1754,0.176,0.176,0.1766,0.1756,0.1755,0.1768,0.1751,0.175,0.1752,0.1795,0.1745,0.1745,0.1771,0.1773,0.1774,0.1858,0,0,0,0,0,0,0.1742,0.1745,0.1753,0.1751,0.1753,0.1775,0.176,0.176,0.1767,0.1767,0.1761,0.176,0.1751,0.1753,0.1752,0.1794,0.1744,0.177,0.1772,0.1774,0.1854,0.1862,0.187,0,0,0,0,0,0.1741,0.1754,0.1753,0.1756,0.1763,0.1776,0.1776,0.1776,0.1767,0.178,0.1769,0.1761,0.1766,0.1753,0.1751,0.1794,0.1769,0.1771,0.1774,0.1851,0.1861,0.187,0,0,0,0,0,0,0.1751,0.1755,0.1754,0.1769,0.1779,0.1776,0.1787,0.1781,0.1781,0.1781,0.1765,0.1763,0.1785,0.177,0.1757,0.1807,0.177,0.1772,0.1829,0.1839,0.1847,0.1853,0.1744,0,0,0,0,0,0.1755,0.1766,0.177,0.1785,0.1791,0.1788,0.1793,0.1794,0.1792,0.1793,0.1787,0.1784,0.1792,0.1799,0.1797,0.1818,0.1814,0.1846,0.1854,0.1861,0.1864,0.1885,0.1896,0.1783,0.1783,0.1783,0,0,0.1763,0.1768,0.1774,0.1788,0.1793,0.1811,0.1792,0.1807,0.1827,0.1791,0.1813,0.1807,0.1801,0.183,0.184,0.1825,0.1895,0.1864,0.187,0.1869,0.1889,0.19,0.191,0.1785,0.1784,0.1784,0,0,0.1785,0.179,0.1806,0.1817,0.1832,0.1834,0.1841,0.1844,0.1853,0.1867,0.1855,0.1872,0.1872,0.1889,0.1894,0.1942,0.1932,0.1945,0.1997,0.2018,0.2028,0.2036,0.2067,0.2077,0.1955,0.1955,0.1955,0,0.1792,0.1811,0.1815,0.1836,0.1846,0.1847,0.1866,0.1883,0.1888,0.1897,0.1886,0.1905,0.1907,0.1949,0.1974,0.1964,0.1969,0.1965,0.203,0.2038,0.2045,0.2074,0.2085,0.1959,0.1959,0.1958,0.1958,0,0.1826,0.1842,0.1856,0.1881,0.1897,0.1914,0.1934,0.1955,0.1958,0.1966,0.1999,0.2,0.201,0.2028,0.2018,0.2077,0.2064,0.2035,0.2009,0.2062,0.2089,0.2098,0.1965,0.1964,0.1962,0.1961,0,0,0.182,0.1867,0.1869,0.1881,0.1917,0.1926,0.1976,0.2007,0.2029,0.2052,0.208,0.2117,0.2109,0.2114,0.2113,0.2144,0.2216,0.2118,0.2117,0.2154,0.2272,0.2317,0.2331,0.2195,0.2197,0.2198,0.2279,0,0.1837,0.1875,0.1899,0.1933,0.1947,0.1975,0.2013,0.2047,0.2073,0.2104,0.213,0.2151,0.2146,0.2153,0.2188,0.22,0.224,0.2197,0.221,0.221,0.2248,0.2343,0.2333,0.2408,0.2288,0.2289,0.229,0,0.1845,0.1869,0.1901,0.1941,0.195,0.1975,0.202,0.2058,0.2118,0.2139,0.2179,0.2188,0.2251,0.2223,0.2296,0.2266,0.228,0.2291,0.2294,0.2309,0.2272,0.2331,0.2429,0.2389,0.2304,0.2303,0.2302,0,0.1807,0.186,0.188,0.1894,0.195,0.197,0.2,0.2059,0.2094,0.2159,0.2192,0.2245,0.2279,0.2308,0.2356,0.2322,0.2431,0.2377,0.2434,0.2436,0.2418,0.2418,0.2483,0.2427,0.2426,0.2426,0.2426,0,0.1796,0.1806,0.186,0.1868,0.189,0.1939,0.1971,0.2018,0.2088,0.2132,0.2199,0.2254,0.2301,0.237,0.2386,0.2468,0.2459,0.2472,0.2472,0.245,0.2451,0.2404,0.2357,0.2429,0.2429,0.2428,0.2427,0,0.1741,0.1781,0.1799,0.1854,0.1869,0.188,0.1947,0.198,0.2058,0.2123,0.2149,0.2274,0.2382,0.2445,0.2511,0.2522,0.2525,0.2597,0.2583,0.2581,0.2582,0.2538,0.2468,0.2384,0.2668,0.267,0.2672,0,0.1715,0.1721,0.1769,0.1779,0.18,0.183,0.1859,0.1945,0.1991,0.2136,0.2172,0.2314,0.2421,0.258,0.264,0.2716,0.2597,0.2723,0.2657,0.2618,0.2569,0.2413,0.2334,0.2667,0.2669,0.267,0.2671,0,0.1659,0.1674,0.1691,0.1716,0.174,0.177,0.1823,0.1853,0.1964,0.205,0.2179,0.2283,0.2496,0.2613,0.2749,0.2776,0.262,0.2748,0.2704,0.2591,0.2426,0.2333,0.2579,0.268,0.2679,0.2679,0.2678,0.2678,0.1605,0.1602,0.1628,0.1643,0.1672,0.1695,0.1701,0.1786,0.1859,0.1983,0.2128,0.2294,0.2537,0.2754,0.2762,0.2813,0.2697,0.2762,0.2721,0.257,0.2469,0.2757,0.2858,0.2858,0.2858,0.2858,0.2858,0,0.1533,0.1545,0.1558,0.1575,0.1577,0.1619,0.1668,0.1678,0.1743,0.1939,0.2071,0.236,0.2548,0.2706,0.2878,0.2815,0.2625,0.2736,0.2509,0.2434,0.2717,0.27,0.2776,0.2776,0.2776,0.2776,0.2776,0.2776,0.1496,0.1481,0.1493,0.1472,0.1486,0.1472,0.1481,0.1525,0.165,0.1842,0.2043,0.2229,0.2574,0.2831,0.2876,0.2804,0.2541,0.2463,0.2365,0.2594,0.2591,0.2589,0.2563,0.261,0.261,0.2007,0.2003,0.2]},{"header":{"parameterUnit":"m.s-1","parameterCategory":2,"la1":30.2991,"la2":30.254,"lo1":-89.0895,"lo2":-89.0444,"dy":0.0017,"dx":0.0017,"nx":28,"ny":28,"refTime":"2024-05-02T21:00:00:Z","depth":"0","parameterNumber":3,"parameterNumberName":"V-component_of_CURRENTS"},"data":[0,0,0,0,0,0,0,0,0,0,0,0,0,0,0,0,0,0,0,0,0,0,0,0,0,0,0,0,0,0,0,0,0,0,0,0,0,0,0,0,0,0,0,0,0,0,0,0,0,0,0,0,0,0,0,0,0,0,-0.0106,-0.0107,0,-0.0205,-0.0206,-0.0207,-0.0262,-0.0263,-0.0263,-0.0263,-0.0359,-0.0362,-0.0364,0,0,0,0,0,0,0,0,0,0,0,0,0,0.0008,0.0006,-0.0106,-0.0107,-0.0109,-0.0205,-0.0206,-0.0207,-0.0262,-0.0263,-0.0263,-0.0263,-0.0359,-0.0361,-0.0364,0,0,0,0,0,0,0,0,0,0,0,0,0,-0.0061,0.0006,-0.0106,-0.0148,-0.0152,-0.0204,-0.0206,-0.0208,-0.0262,-0.0263,-0.0263,-0.0263,-0.0358,-0.0361,-0.0365,-0.0382,0,0,-0.0376,-0.0377,0,0,0,0,0,0,0,0,-0.0057,-0.0065,-0.014,-0.0145,-0.015,-0.0222,-0.0201,-0.0266,-0.0262,-0.022,-0.0263,-0.0263,-0.0313,-0.032,-0.0338,-0.0386,-0.039,-0.0376,-0.0378,-0.038,-0.0381,0,0,0,0,0,0,0,-0.0052,-0.0061,-0.0145,-0.0142,-0.0148,-0.0171,-0.018,-0.0214,-0.0264,-0.0224,-0.0228,-0.0239,-0.0316,-0.0335,-0.0341,-0.0392,-0.0376,-0.0379,-0.0381,-0.0383,-0.0444,-0.0443,0,0,0,0,0,0,-0.0039,-0.0057,-0.0142,-0.0148,-0.0103,-0.0172,-0.0183,-0.0198,-0.0264,-0.0274,-0.0239,-0.0242,-0.0328,-0.0337,-0.0344,-0.0352,-0.038,-0.0383,-0.0385,-0.0444,-0.0443,-0.0443,0,0,0,0,0,0,-0.0036,-0.0045,-0.0138,-0.0104,-0.0118,-0.0174,-0.019,-0.02,-0.022,-0.0275,-0.0285,-0.0248,-0.0329,-0.0339,-0.0375,-0.0357,-0.0385,-0.0388,-0.0445,-0.0444,-0.0443,-0.0378,0,0,0,0,0,0,-0.0032,-0.0044,-0.0047,-0.0104,-0.0119,-0.0161,-0.019,-0.0202,-0.0226,-0.023,-0.0286,-0.0296,-0.033,-0.0369,-0.0378,-0.0362,-0.0391,-0.0445,-0.0444,-0.0443,-0.0381,-0.0375,-0.037,0,0,0,0,0,-0.0028,-0.0029,-0.0046,-0.0056,-0.0122,-0.0161,-0.0171,-0.0211,-0.0226,-0.023,-0.0272,-0.0294,-0.0368,-0.0372,-0.0383,-0.0367,-0.0446,-0.0445,-0.0444,-0.0383,-0.0376,-0.037,0,0,0,0,0,0,0.0016,-0.0037,-0.0056,-0.0075,-0.0111,-0.017,-0.0177,-0.0207,-0.0244,-0.0246,-0.0298,-0.031,-0.0332,-0.036,-0.0363,-0.0381,-0.0407,-0.0407,-0.0357,-0.0351,-0.0345,-0.0317,-0.0394,0,0,0,0,0,0.0026,0.0012,-0.0042,-0.0055,-0.007,-0.0122,-0.0141,-0.017,-0.0212,-0.0229,-0.0268,-0.0305,-0.0335,-0.0351,-0.0384,-0.04,-0.0416,-0.0393,-0.0388,-0.0383,-0.0367,-0.038,-0.0373,-0.0439,-0.0439,-0.0439,0,0,0.0037,0.0009,-0.0001,-0.0046,-0.0076,-0.0089,-0.0134,-0.0159,-0.0166,-0.0232,-0.025,-0.0291,-0.0336,-0.0353,-0.0364,-0.0375,-0.0375,-0.0381,-0.0377,-0.0363,-0.0378,-0.0371,-0.0365,-0.0438,-0.0438,-0.0438,0,0,0.0063,0.0032,0.0033,0.001,-0.0029,-0.0061,-0.0065,-0.0119,-0.0138,-0.0168,-0.021,-0.0239,-0.0291,-0.0314,-0.0334,-0.0317,-0.0348,-0.0326,-0.0275,-0.0288,-0.0282,-0.0278,-0.0294,-0.0291,-0.0321,-0.0321,-0.0321,0,0.0083,0.0074,0.0029,0.0029,0.0018,-0.0043,-0.0037,-0.0068,-0.0125,-0.0132,-0.0161,-0.0224,-0.0267,-0.0278,-0.0275,-0.0303,-0.0318,-0.0297,-0.028,-0.0275,-0.0272,-0.029,-0.0287,-0.0317,-0.0318,-0.0318,-0.0318,0,0.0111,0.0106,0.0107,0.0088,0.0071,0.0064,0.002,0.0005,-0.0028,-0.006,-0.0083,-0.0146,-0.0179,-0.0197,-0.0236,-0.0226,-0.0248,-0.0273,-0.0293,-0.0261,-0.0282,-0.0281,-0.0313,-0.0314,-0.0315,-0.0316,0,0,0.0151,0.0132,0.0134,0.0142,0.0105,0.0096,0.0091,0.007,0.0075,0.0019,0.0024,-0.0036,-0.007,-0.0094,-0.0143,-0.0157,-0.0155,-0.0198,-0.02,-0.0207,-0.0183,-0.0197,-0.0197,-0.0178,-0.0177,-0.0177,-0.021,0,0.019,0.0211,0.0188,0.0211,0.0218,0.0177,0.018,0.0155,0.0123,0.011,0.0053,0.0031,-0.0031,-0.0046,-0.0069,-0.0136,-0.0148,-0.0144,-0.0218,-0.022,-0.0231,-0.0195,-0.0183,-0.0211,-0.0209,-0.0209,-0.0209,0,0.0228,0.0239,0.0268,0.0279,0.028,0.0283,0.0285,0.0277,0.0245,0.0221,0.019,0.0139,0.0103,0.0046,-0.0032,-0.0027,-0.0091,-0.0143,-0.0146,-0.0176,-0.0231,-0.0243,-0.0209,-0.0359,-0.0208,-0.0208,-0.0208,0,0.0281,0.0298,0.0327,0.0328,0.0325,0.0337,0.0333,0.0312,0.0325,0.029,0.0294,0.0234,0.0207,0.0126,0.001,-0.0009,-0.0074,-0.0118,-0.0186,-0.0189,-0.02,-0.0205,-0.0311,-0.0155,-0.0155,-0.0155,-0.0155,0,0.0329,0.0355,0.0354,0.037,0.0412,0.039,0.0425,0.0412,0.0411,0.0436,0.0355,0.0365,0.0228,0.0166,0.0053,-0.0056,-0.0041,-0.0161,-0.019,-0.0179,-0.018,-0.0329,-0.0418,-0.0156,-0.0156,-0.0156,-0.0155,0,0.0375,0.0374,0.0412,0.0426,0.0435,0.0461,0.0487,0.0515,0.05,0.0531,0.0528,0.0472,0.0389,0.0251,0.0118,0.0007,-0.0185,-0.0147,-0.0126,-0.0152,-0.0359,-0.0443,-0.0572,-0.0627,-0.0225,-0.0225,-0.0226,0,0.0399,0.0422,0.0454,0.0481,0.0487,0.052,0.0549,0.0554,0.059,0.0601,0.0631,0.0569,0.0544,0.0342,0.0133,-0.0052,-0.0192,-0.017,-0.0205,-0.0354,-0.047,-0.0536,-0.0577,-0.0202,-0.0202,-0.0202,-0.0202,0,0.0447,0.0454,0.0483,0.0537,0.0575,0.0622,0.0665,0.0712,0.0724,0.0761,0.0803,0.0793,0.06,0.0425,0.016,0.0016,-0.0276,-0.0178,-0.0336,-0.0453,-0.0528,-0.0599,-0.0207,-0.0203,-0.0203,-0.0203,-0.0203,-0.0202,0.0482,0.051,0.0545,0.0597,0.0647,0.0715,0.0765,0.0827,0.0902,0.0975,0.0955,0.0987,0.0708,0.0354,0.0121,-0.0288,-0.0297,-0.0408,-0.0496,-0.0547,-0.0606,-0.0213,-0.0241,-0.0242,-0.0242,-0.0242,-0.0242,0,0.0523,0.0553,0.0604,0.0668,0.0729,0.0746,0.0839,0.0901,0.1002,0.1101,0.1155,0.1085,0.0719,0.034,-0.0213,-0.0532,-0.0653,-0.0716,-0.0815,-0.0839,-0.049,-0.0495,-0.0574,-0.0574,-0.0574,-0.0574,-0.0574,-0.0574,0.0547,0.0599,0.0622,0.0722,0.0771,0.0861,0.0919,0.1024,0.1122,0.1263,0.134,0.1375,0.1127,0.0053,-0.0685,-0.0868,-0.108,-0.1147,-0.1255,-0.1037,-0.1015,-0.0995,-0.102,-0.1209,-0.121,-0.1553,-0.1557,-0.156]}],[{"header":{"parameterUnit":"m.s-1","parameterCategory":2,"la1":30.2991,"la2":30.254,"lo1":-89.0895,"lo2":-89.0444,"dy":0.0017,"dx":0.0017,"nx":28,"ny":28,"refTime":"2024-05-02T21:00:00:Z","depth":"2","parameterNumber":2,"parameterNumberName":"U-component_of_CURRENTS"},"data":[0,0,0,0,0,0,0,0,0,0,0,0,0,0,0,0,0,0,0,0,0,0,0,0,0,0,0,0,0,0,0,0,0,0,0,0,0,0,0,0,0,0,0,0,0,0,0,0,0,0,0,0,0,0,0,0,0,0,0.179,0.179,0,0.1806,0.1806,0.1806,0.1808,0.1808,0.1809,0.1809,0.1798,0.1798,0.1797,0,0,0,0,0,0,0,0,0,0,0,0,0,0.1709,0.171,0.179,0.179,0.1791,0.1806,0.1806,0.1806,0.1808,0.1808,0.1809,0.1809,0.1798,0.1798,0.1797,0,0,0,0,0,0,0,0,0,0,0,0,0,0.1734,0.1711,0.179,0.1796,0.1797,0.1806,0.1806,0.1806,0.1808,0.1808,0.1809,0.1809,0.1798,0.1798,0.1797,0.179,0,0,0.1795,0.1795,0,0,0,0,0,0,0,0,0.1732,0.1736,0.1794,0.1795,0.1796,0.1808,0.1773,0.18,0.1808,0.1801,0.1809,0.1809,0.18,0.18,0.1799,0.179,0.1789,0.1795,0.1795,0.1795,0.1795,0,0,0,0,0,0,0,0.1731,0.1735,0.1793,0.1795,0.1796,0.178,0.1784,0.1778,0.1797,0.1802,0.1803,0.1809,0.18,0.1799,0.1799,0.1789,0.1795,0.1795,0.1794,0.1794,0.182,0.1821,0,0,0,0,0,0,0.1737,0.1734,0.1793,0.1794,0.1767,0.1781,0.1786,0.1802,0.1798,0.1798,0.1808,0.1809,0.18,0.1799,0.1798,0.1844,0.1795,0.1794,0.1794,0.1819,0.182,0.1822,0,0,0,0,0,0,0.1735,0.1742,0.1792,0.1766,0.1771,0.1783,0.1801,0.1802,0.1809,0.1804,0.1803,0.1815,0.18,0.1799,0.1801,0.1842,0.1794,0.1793,0.1818,0.182,0.1821,0.1901,0,0,0,0,0,0,0.1733,0.1742,0.1753,0.1767,0.1773,0.1812,0.1801,0.1802,0.1813,0.1813,0.1809,0.1808,0.18,0.1802,0.18,0.184,0.1793,0.1817,0.1819,0.1821,0.1897,0.1905,0.1912,0,0,0,0,0,0.173,0.1749,0.1754,0.1761,0.1789,0.1814,0.1815,0.1821,0.1813,0.1825,0.1816,0.1808,0.1814,0.1802,0.18,0.184,0.1816,0.1818,0.182,0.1894,0.1904,0.1912,0,0,0,0,0,0,0.1722,0.1751,0.1757,0.1784,0.1804,0.1815,0.1828,0.1825,0.1827,0.1826,0.1812,0.1811,0.1831,0.1817,0.1804,0.1853,0.1817,0.1819,0.1874,0.1883,0.189,0.1893,0.1792,0,0,0,0,0,0.1726,0.1749,0.1771,0.1797,0.1807,0.1816,0.1824,0.1831,0.1835,0.1836,0.1832,0.183,0.1838,0.1844,0.1843,0.1863,0.1853,0.1889,0.1897,0.1903,0.1904,0.1908,0.1916,0.1829,0.1829,0.1829,0,0,0.1732,0.1751,0.1765,0.1796,0.1811,0.1835,0.1822,0.1845,0.1866,0.1834,0.1856,0.1851,0.1846,0.1874,0.1884,0.187,0.1929,0.1906,0.1912,0.1909,0.1911,0.192,0.1927,0.1831,0.183,0.183,0,0,0.175,0.1773,0.1793,0.1812,0.1839,0.1852,0.1861,0.1878,0.1888,0.1905,0.1895,0.1911,0.1913,0.1929,0.1934,0.1979,0.1964,0.1983,0.203,0.2035,0.2043,0.2049,0.2075,0.2083,0.1993,0.1993,0.1993,0,0.1749,0.178,0.1803,0.1825,0.184,0.1863,0.1882,0.1907,0.1921,0.1926,0.1923,0.1937,0.1944,0.1979,0.2008,0.1999,0.1998,0.2,0.2046,0.2051,0.2056,0.2082,0.2089,0.1997,0.1996,0.1996,0.1996,0,0.1778,0.1801,0.1818,0.1857,0.1881,0.1904,0.1939,0.1964,0.1975,0.1987,0.2015,0.2022,0.2027,0.205,0.2049,0.2095,0.2084,0.2052,0.2025,0.207,0.2094,0.2101,0.2003,0.2001,0.2,0.1999,0,0,0.1764,0.1823,0.1825,0.184,0.1893,0.1911,0.1964,0.2,0.2019,0.205,0.2068,0.2114,0.2109,0.2114,0.212,0.2145,0.2205,0.2124,0.2122,0.2154,0.2232,0.2255,0.2263,0.2176,0.2177,0.2177,0.2245,0,0.1769,0.1806,0.1838,0.1877,0.1896,0.1937,0.1977,0.2018,0.2049,0.2078,0.2109,0.213,0.2138,0.2146,0.2175,0.219,0.222,0.2191,0.2179,0.2179,0.2196,0.2271,0.2117,0.2166,0.2251,0.2252,0.2253,0,0.1771,0.1796,0.1826,0.1871,0.1882,0.1912,0.1964,0.2003,0.2065,0.2087,0.2123,0.2137,0.22,0.2184,0.2246,0.2224,0.2238,0.2251,0.2252,0.2245,0.2213,0.2128,0.2174,0.2263,0.2262,0.2262,0.2261,0,0.1729,0.178,0.1799,0.1816,0.1879,0.1897,0.1934,0.1995,0.2031,0.2093,0.2125,0.2171,0.2209,0.2229,0.2288,0.226,0.2348,0.2301,0.2336,0.2337,0.219,0.2178,0.2332,0.2332,0.2332,0.2332,0.2331,0,0.171,0.1722,0.1779,0.1789,0.181,0.1865,0.1895,0.1943,0.2013,0.2055,0.2122,0.2172,0.2221,0.2282,0.2302,0.2366,0.236,0.2366,0.2361,0.2218,0.2208,0.2264,0.2255,0.2334,0.2333,0.2333,0.2333,0,0.1658,0.1698,0.1718,0.1775,0.1791,0.1805,0.1877,0.1906,0.1984,0.2046,0.2073,0.2189,0.2281,0.2341,0.2396,0.24,0.2441,0.2455,0.2309,0.2287,0.2419,0.2413,0.2491,0.2493,0.2494,0.2495,0.2496,0,0.1635,0.1642,0.1692,0.1704,0.1728,0.1762,0.1791,0.1877,0.192,0.2056,0.2089,0.2214,0.2299,0.2429,0.246,0.2515,0.2507,0.2384,0.2305,0.2451,0.2438,0.243,0.2423,0.2146,0.2144,0.2142,0.214,0,0.1584,0.1602,0.162,0.1648,0.1675,0.1703,0.1756,0.1788,0.1894,0.1969,0.2083,0.2166,0.2329,0.2344,0.2441,0.2436,0.2365,0.2355,0.253,0.2144,0.2134,0.2118,0.2121,0.2125,0.2127,0.2128,0.2129,0.2129,0.1538,0.1537,0.1565,0.1584,0.1613,0.1634,0.1639,0.1714,0.1778,0.1877,0.2005,0.2096,0.2184,0.2277,0.2245,0.2227,0.2371,0.2254,0.2254,0.2257,0.222,0.2214,0.2215,0.2217,0.2218,0.222,0.2221,0,0.1474,0.1487,0.1502,0.1522,0.1523,0.1564,0.1607,0.1609,0.1659,0.1797,0.1895,0.1841,0.1916,0.1989,0.1965,0.2002,0.1922,0.1905,0.1776,0.1797,0.1814,0.1746,0.1619,0.1616,0.1614,0.1611,0,0,0.1442,0.143,0.1442,0.1423,0.1438,0.1421,0.1428,0.1453,0.1534,0.1582,0.1644,0.1848,0.197,0.1762,0.1768,0.1687,0.1709,0.1626,0.2126,0.1997,0.201,0.2054,0.1982,0,0,0,0,0]},{"header":{"parameterUnit":"m.s-1","parameterCategory":2,"la1":30.2991,"la2":30.254,"lo1":-89.0895,"lo2":-89.0444,"dy":0.0017,"dx":0.0017,"nx":28,"ny":28,"refTime":"2024-05-02T21:00:00:Z","depth":"2","parameterNumber":3,"parameterNumberName":"V-component_of_CURRENTS"},"data":[0,0,0,0,0,0,0,0,0,0,0,0,0,0,0,0,0,0,0,0,0,0,0,0,0,0,0,0,0,0,0,0,0,0,0,0,0,0,0,0,0,0,0,0,0,0,0,0,0,0,0,0,0,0,0,0,0,0,-0.0172,-0.0174,0,-0.0275,-0.0276,-0.0277,-0.0338,-0.0338,-0.0339,-0.0339,-0.0434,-0.0437,-0.0439,0,0,0,0,0,0,0,0,0,0,0,0,0,-0.0068,-0.0069,-0.0172,-0.0174,-0.0175,-0.0275,-0.0276,-0.0278,-0.0338,-0.0338,-0.0339,-0.0339,-0.0434,-0.0436,-0.0439,0,0,0,0,0,0,0,0,0,0,0,0,0,-0.0137,-0.007,-0.0172,-0.0217,-0.0222,-0.0274,-0.0276,-0.0278,-0.0338,-0.0338,-0.0339,-0.0339,-0.0433,-0.0436,-0.044,-0.0455,0,0,-0.045,-0.0452,0,0,0,0,0,0,0,0,-0.0133,-0.014,-0.0209,-0.0214,-0.0219,-0.0294,-0.0274,-0.0337,-0.0338,-0.0295,-0.0339,-0.0339,-0.0386,-0.0393,-0.0413,-0.0459,-0.0463,-0.0451,-0.0453,-0.0454,-0.0455,0,0,0,0,0,0,0,-0.0128,-0.0137,-0.0214,-0.021,-0.0217,-0.0245,-0.0255,-0.0287,-0.0337,-0.0298,-0.0303,-0.0313,-0.0389,-0.0409,-0.0416,-0.0465,-0.045,-0.0454,-0.0456,-0.0457,-0.0516,-0.0516,0,0,0,0,0,0,-0.0112,-0.0132,-0.021,-0.0217,-0.0175,-0.0246,-0.0257,-0.027,-0.0337,-0.0348,-0.0313,-0.0316,-0.0403,-0.0411,-0.0419,-0.0429,-0.0454,-0.0457,-0.0459,-0.0517,-0.0516,-0.0515,0,0,0,0,0,0,-0.0109,-0.0118,-0.0206,-0.0176,-0.0189,-0.0247,-0.0261,-0.0272,-0.0294,-0.0348,-0.0359,-0.0324,-0.0404,-0.0414,-0.0449,-0.0433,-0.0459,-0.0462,-0.0517,-0.0517,-0.0516,-0.0456,0,0,0,0,0,0,-0.0106,-0.0116,-0.0118,-0.0175,-0.019,-0.0232,-0.0261,-0.0273,-0.0299,-0.0304,-0.0361,-0.0371,-0.0405,-0.0443,-0.0452,-0.0438,-0.0465,-0.0518,-0.0517,-0.0516,-0.0458,-0.0453,-0.0448,0,0,0,0,0,-0.0102,-0.0102,-0.0117,-0.0127,-0.0191,-0.0232,-0.0242,-0.0285,-0.0299,-0.0306,-0.0347,-0.0369,-0.0443,-0.0446,-0.0457,-0.0443,-0.0519,-0.0517,-0.0516,-0.0461,-0.0454,-0.0448,0,0,0,0,0,0,-0.0063,-0.011,-0.0128,-0.0144,-0.0181,-0.0242,-0.0252,-0.028,-0.0319,-0.0322,-0.0372,-0.0384,-0.0406,-0.0434,-0.0436,-0.0456,-0.048,-0.0481,-0.0434,-0.0428,-0.0423,-0.0397,-0.0468,0,0,0,0,0,-0.0052,-0.0063,-0.0115,-0.0128,-0.0142,-0.0195,-0.0216,-0.0245,-0.0287,-0.0305,-0.0344,-0.038,-0.0409,-0.0426,-0.0458,-0.0474,-0.0492,-0.0469,-0.0464,-0.0459,-0.0445,-0.0459,-0.0454,-0.0512,-0.0512,-0.0512,0,0,-0.0043,-0.0068,-0.0077,-0.0119,-0.0151,-0.0165,-0.0208,-0.0236,-0.0245,-0.0308,-0.0328,-0.0367,-0.0411,-0.0429,-0.044,-0.045,-0.0454,-0.0458,-0.0454,-0.0441,-0.0458,-0.0452,-0.0447,-0.0511,-0.0511,-0.0511,0,0,-0.0022,-0.0049,-0.0047,-0.0071,-0.011,-0.0142,-0.0146,-0.02,-0.022,-0.025,-0.029,-0.0318,-0.0369,-0.0393,-0.0412,-0.0397,-0.0428,-0.0405,-0.0359,-0.0373,-0.0369,-0.0364,-0.0384,-0.0383,-0.0401,-0.0401,-0.0401,0,-0.0005,-0.0013,-0.0054,-0.0055,-0.0066,-0.0125,-0.0123,-0.0153,-0.0211,-0.0217,-0.0245,-0.0307,-0.0348,-0.036,-0.0357,-0.0383,-0.04,-0.0379,-0.0366,-0.0362,-0.0359,-0.0381,-0.0379,-0.0398,-0.0398,-0.0398,-0.0399,0,0.0017,0.0013,0.0013,-0.0005,-0.0022,-0.0032,-0.0073,-0.009,-0.0122,-0.0153,-0.0176,-0.0236,-0.0268,-0.0285,-0.0321,-0.0314,-0.0337,-0.0359,-0.0378,-0.0349,-0.0374,-0.0374,-0.0393,-0.0394,-0.0395,-0.0396,0,0,0.0051,0.0034,0.0035,0.0042,0.0007,-0.0005,-0.001,-0.0032,-0.003,-0.0082,-0.0081,-0.0136,-0.0169,-0.0191,-0.0237,-0.0252,-0.0255,-0.0291,-0.0293,-0.0305,-0.0289,-0.03,-0.0301,-0.0276,-0.0276,-0.0275,-0.0317,0,0.0083,0.01,0.0082,0.0098,0.0103,0.0065,0.0067,0.0042,0.001,-0.0005,-0.0056,-0.008,-0.0133,-0.0149,-0.0171,-0.0237,-0.025,-0.0241,-0.032,-0.0322,-0.033,-0.03,-0.028,-0.0314,-0.0318,-0.0318,-0.0318,0,0.0114,0.0123,0.0148,0.0156,0.0156,0.0157,0.0155,0.0146,0.0114,0.0092,0.0063,0.0015,-0.0019,-0.007,-0.0146,-0.0139,-0.0201,-0.0252,-0.0255,-0.0281,-0.0331,-0.0344,-0.0314,-0.0318,-0.0318,-0.0318,-0.0318,0,0.0159,0.0172,0.0196,0.0197,0.0192,0.0204,0.0198,0.0177,0.0186,0.0152,0.0153,0.0097,0.007,-0.0006,-0.0114,-0.013,-0.0199,-0.0238,-0.0302,-0.0304,-0.0309,-0.0313,-0.0277,-0.0277,-0.0276,-0.0276,-0.0276,0,0.0198,0.0219,0.0219,0.0232,0.0268,0.0248,0.0276,0.0263,0.026,0.028,0.0206,0.0211,0.0086,0.0025,-0.0079,-0.0184,-0.0172,-0.028,-0.0308,-0.0289,-0.029,-0.0311,-0.0315,-0.0278,-0.0278,-0.0277,-0.0277,0,0.0236,0.0236,0.0266,0.0278,0.0287,0.0308,0.033,0.0352,0.0338,0.0363,0.036,0.0303,0.0221,0.0095,-0.0034,-0.0132,-0.0238,-0.0278,-0.025,-0.0273,-0.0345,-0.0345,-0.0353,-0.0353,-0.0354,-0.0354,-0.0354,0,0.0256,0.0275,0.0303,0.0326,0.0332,0.0359,0.0384,0.0388,0.0416,0.0423,0.0446,0.0384,0.0351,0.0158,-0.0029,-0.02,-0.0228,-0.0297,-0.032,-0.0322,-0.0349,-0.0348,-0.0348,-0.0311,-0.0311,-0.0311,-0.0311,0,0.0295,0.0302,0.0326,0.0373,0.0407,0.0447,0.0483,0.0523,0.0533,0.0563,0.0594,0.0576,0.0391,0.0223,-0.0019,-0.0139,-0.027,-0.0301,-0.0301,-0.0292,-0.0286,-0.0312,-0.0312,-0.0311,-0.0311,-0.0311,-0.0311,-0.0311,0.0323,0.0346,0.0377,0.0423,0.0468,0.0527,0.057,0.0622,0.0686,0.0742,0.0716,0.071,0.0496,0.0208,-0.0025,-0.0266,-0.0261,-0.0341,-0.034,-0.0339,-0.0324,-0.0318,-0.0347,-0.0347,-0.0348,-0.0348,-0.0348,0,0.0355,0.0381,0.0426,0.0482,0.0537,0.0554,0.0635,0.0686,0.0771,0.0838,0.0872,0.0713,0.0512,0.027,-0.0091,-0.0312,-0.0333,-0.0374,-0.0354,-0.0353,-0.0352,-0.0337,-0.0364,-0.0365,-0.0365,-0.0366,0,0,0.0373,0.0418,0.0438,0.0527,0.0573,0.0654,0.0705,0.0792,0.0862,0.0934,0.0956,0.0934,0.0627,0.0372,0.0057,-0.0153,-0.02,-0.0192,-0.0155,-0.0094,-0.009,-0.0309,-0.0281,0,0,0,0,0]}],[{"header":{"parameterUnit":"m.s-1","parameterCategory":2,"la1":30.2991,"la2":30.254,"lo1":-89.0895,"lo2":-89.0444,"dy":0.0017,"dx":0.0017,"nx":28,"ny":28,"refTime":"2024-05-02T21:00:00:Z","depth":"4","parameterNumber":2,"parameterNumberName":"U-component_of_CURRENTS"},"data":[0,0,0,0,0,0,0,0,0,0,0,0,0,0,0,0,0,0,0,0,0,0,0,0,0,0,0,0,0,0,0,0,0,0,0,0,0,0,0,0,0,0,0,0,0,0,0,0,0,0,0,0,0,0,0,0,0,0,0.1035,0.1036,0,0.1079,0.1079,0.108,0.1103,0.1103,0.1103,0.1104,0.1147,0.1148,0.1149,0,0,0,0,0,0,0,0,0,0,0,0,0,0.1024,0.1024,0.1035,0.1036,0.1036,0.1079,0.1079,0.108,0.1103,0.1103,0.1103,0.1104,0.1147,0.1148,0.1149,0,0,0,0,0,0,0,0,0,0,0,0,0,0.1042,0.1024,0.1035,0.1055,0.1057,0.1079,0.1079,0.108,0.1103,0.1103,0.1104,0.1104,0.1146,0.1148,0.1149,0.115,0,0,0.1153,0.1154,0,0,0,0,0,0,0,0,0.1041,0.1042,0.1051,0.1053,0.1056,0.1088,0.1092,0.1104,0.1103,0.1083,0.1104,0.1104,0.1128,0.1131,0.1135,0.1152,0.1154,0.1153,0.1154,0.1155,0.1155,0,0,0,0,0,0,0,0.104,0.1041,0.105,0.1052,0.1055,0.108,0.1082,0.1094,0.1101,0.1085,0.1087,0.1096,0.113,0.1134,0.1137,0.1154,0.1153,0.1154,0.1155,0.1156,0.1256,0.1258,0,0,0,0,0,0,0.1036,0.1039,0.1049,0.1052,0.1052,0.108,0.1083,0.1075,0.1101,0.1106,0.1095,0.1097,0.1131,0.1135,0.1138,0.1211,0.1155,0.1156,0.1157,0.1254,0.1256,0.1258,0,0,0,0,0,0,0.1035,0.1035,0.1047,0.105,0.1053,0.108,0.1072,0.1076,0.1107,0.111,0.1114,0.1125,0.1132,0.1136,0.1173,0.121,0.1157,0.1158,0.1252,0.1255,0.1257,0.1312,0,0,0,0,0,0,0.1034,0.1034,0.1045,0.1048,0.1053,0.1076,0.1072,0.1077,0.1111,0.1114,0.1136,0.1139,0.1132,0.1171,0.1174,0.1211,0.1159,0.125,0.1253,0.1256,0.1308,0.1316,0.1323,0,0,0,0,0,0.1033,0.1041,0.1045,0.1048,0.106,0.1077,0.1082,0.1101,0.1113,0.113,0.1148,0.114,0.1195,0.1173,0.1177,0.1215,0.1248,0.1252,0.1256,0.1304,0.1314,0.1323,0,0,0,0,0,0,0.1042,0.1044,0.1049,0.1057,0.1075,0.1082,0.1107,0.1118,0.1146,0.1158,0.1157,0.1162,0.1209,0.1206,0.1182,0.1256,0.1223,0.1228,0.1258,0.1268,0.1276,0.128,0.116,0,0,0,0,0,0.1048,0.1055,0.1062,0.1073,0.1085,0.1102,0.1119,0.1131,0.1149,0.1163,0.1182,0.1204,0.1225,0.1242,0.1258,0.1295,0.1301,0.1325,0.1333,0.1339,0.1347,0.1392,0.1405,0.1272,0.1272,0.1272,0,0,0.1053,0.1059,0.1063,0.1077,0.1094,0.1115,0.1114,0.1146,0.1171,0.1163,0.1216,0.1233,0.1242,0.1284,0.1306,0.1289,0.1381,0.1345,0.135,0.1354,0.1398,0.1411,0.1422,0.1275,0.1274,0.1274,0,0,0.1069,0.1075,0.109,0.1107,0.1139,0.1146,0.1162,0.1189,0.1212,0.1252,0.1262,0.1302,0.1331,0.1351,0.136,0.1422,0.142,0.1436,0.148,0.1524,0.1535,0.1545,0.1567,0.1578,0.144,0.144,0.144,0,0.1083,0.1095,0.1101,0.1125,0.1149,0.1163,0.1193,0.1212,0.1252,0.1282,0.1277,0.1353,0.136,0.1417,0.144,0.144,0.146,0.144,0.1534,0.1543,0.1553,0.1573,0.1584,0.1443,0.1443,0.1443,0.1442,0,0.1103,0.1127,0.1142,0.1171,0.1196,0.1226,0.125,0.1288,0.1316,0.1338,0.1409,0.1425,0.1472,0.1485,0.1478,0.1559,0.155,0.1537,0.1507,0.1569,0.1586,0.1598,0.1448,0.1447,0.1446,0.1445,0,0,0.1099,0.1148,0.1157,0.1184,0.1228,0.1246,0.1297,0.1346,0.1388,0.143,0.1492,0.1535,0.156,0.1574,0.1586,0.1623,0.1699,0.1615,0.1616,0.1631,0.1794,0.1694,0.1696,0.171,0.1713,0.1714,0.1778,0,0.1122,0.117,0.1193,0.1248,0.1275,0.1311,0.1354,0.1402,0.1443,0.1503,0.154,0.1596,0.1588,0.1623,0.1664,0.1692,0.1733,0.1683,0.1736,0.1737,0.1636,0.1707,0.1722,0.1786,0.1789,0.1791,0.1792,0,0.1135,0.1168,0.1225,0.1289,0.1307,0.1344,0.1423,0.1464,0.1541,0.1578,0.1645,0.1672,0.1745,0.172,0.1808,0.1782,0.1801,0.1811,0.1814,0.1709,0.1659,0.1713,0.1812,0.1811,0.1809,0.1808,0.1807,0,0.1121,0.1191,0.1239,0.1261,0.1331,0.1377,0.1421,0.1497,0.1542,0.1636,0.168,0.176,0.1807,0.1853,0.1881,0.186,0.1961,0.1928,0.1855,0.1847,0.1891,0.188,0.1996,0.1996,0.1996,0.1995,0.1995,0,0.1121,0.1162,0.1241,0.1264,0.1327,0.1383,0.1457,0.1512,0.16,0.1651,0.1725,0.1773,0.1847,0.1904,0.1919,0.1924,0.1998,0.1877,0.1866,0.1912,0.1902,0.1898,0.1886,0.1998,0.1997,0.1997,0.1996,0,0.1089,0.1143,0.1199,0.1288,0.132,0.1365,0.1465,0.1509,0.1603,0.1674,0.1709,0.181,0.1879,0.1936,0.2006,0.1959,0.1977,0.1962,0.2013,0.2001,0.1821,0.1812,0.1879,0.1876,0.1874,0.1872,0.187,0,0.1072,0.11,0.12,0.1233,0.1278,0.1352,0.1397,0.15,0.1541,0.1675,0.1698,0.1808,0.1859,0.188,0.1949,0.198,0.1959,0.1948,0.1878,0.1832,0.1815,0.1808,0.1802,0.1866,0.1866,0.1865,0.1865,0,0.1036,0.1082,0.1126,0.1193,0.1251,0.13,0.1373,0.1396,0.1503,0.1604,0.1648,0.169,0.1767,0.1815,0.1859,0.1874,0.1941,0.1923,0.1926,0.186,0.1817,0.1801,0.1798,0.1856,0.1858,0.1858,0.1859,0,0.1008,0.1026,0.1088,0.1138,0.1203,0.1226,0.1273,0.1319,0.1375,0.1512,0.1525,0.1642,0.1742,0.1762,0.1804,0.1815,0.1782,0.1712,0.1726,0.1736,0.1662,0.1584,0.1557,0,0,0,0,0,0.097,0.0982,0.1025,0.1072,0.1129,0.1166,0.1244,0.1291,0.1392,0.1386,0.145,0.1511,0.1571,0.164,0.1625,0.1752,0.1795,0.1727,0.1722,0.1811,0.182,0.1746,0,0,0,0,0,0,0.0944,0.0983,0.0999,0.1002,0.102,0.1071,0.1116,0.1185,0.1184,0.1295,0.1339,0.1426,0.1514,0.1568,0.1598,0.1619,0.1586,0.1806,0.1802,0.1805,0.1814,0.1822,0.1749,0,0,0,0,0]},{"header":{"parameterUnit":"m.s-1","parameterCategory":2,"la1":30.2991,"la2":30.254,"lo1":-89.0895,"lo2":-89.0444,"dy":0.0017,"dx":0.0017,"nx":28,"ny":28,"refTime":"2024-05-02T21:00:00:Z","depth":"4","parameterNumber":3,"parameterNumberName":"V-component_of_CURRENTS"},"data":[0,0,0,0,0,0,0,0,0,0,0,0,0,0,0,0,0,0,0,0,0,0,0,0,0,0,0,0,0,0,0,0,0,0,0,0,0,0,0,0,0,0,0,0,0,0,0,0,0,0,0,0,0,0,0,0,0,0,0.0137,0.0137,0,0.0143,0.0143,0.0143,0.0147,0.0147,0.0147,0.0147,0.0149,0.015,0.015,0,0,0,0,0,0,0,0,0,0,0,0,0,0.01,0.0101,0.0137,0.0137,0.0137,0.0143,0.0143,0.0143,0.0147,0.0147,0.0147,0.0147,0.0149,0.015,0.015,0,0,0,0,0,0,0,0,0,0,0,0,0,0.0113,0.0102,0.0137,0.014,0.014,0.0143,0.0143,0.0143,0.0147,0.0147,0.0147,0.0147,0.0149,0.015,0.015,0.015,0,0,0.015,0.015,0,0,0,0,0,0,0,0,0.0112,0.0114,0.0139,0.014,0.014,0.0144,0.0131,0.0145,0.0147,0.0145,0.0147,0.0147,0.0147,0.0147,0.0149,0.015,0.015,0.015,0.015,0.015,0.015,0,0,0,0,0,0,0,0.0111,0.0114,0.014,0.0139,0.014,0.0131,0.0133,0.0133,0.0146,0.0145,0.0145,0.0145,0.0147,0.0149,0.0149,0.015,0.015,0.015,0.015,0.015,0.0121,0.0121,0,0,0,0,0,0,0.0112,0.0113,0.014,0.014,0.0125,0.0131,0.0134,0.0143,0.0146,0.0147,0.0145,0.0146,0.0149,0.0149,0.0149,0.0133,0.015,0.015,0.015,0.0122,0.0121,0.012,0,0,0,0,0,0,0.0111,0.0114,0.0139,0.0126,0.0128,0.0132,0.0143,0.0143,0.0142,0.0146,0.0147,0.0144,0.0149,0.0149,0.0152,0.0133,0.015,0.015,0.0123,0.0122,0.0121,0.0111,0,0,0,0,0,0,0.011,0.0114,0.0119,0.0126,0.0129,0.0137,0.0142,0.0143,0.0142,0.0143,0.0145,0.0145,0.0149,0.0152,0.0153,0.0134,0.015,0.0124,0.0123,0.0121,0.0112,0.0109,0.0107,0,0,0,0,0,0.0109,0.0117,0.0119,0.0122,0.0136,0.0137,0.0137,0.014,0.0142,0.0139,0.0146,0.0145,0.0142,0.0153,0.0153,0.0134,0.0125,0.0123,0.0121,0.0113,0.011,0.0107,0,0,0,0,0,0,0.0105,0.0118,0.0121,0.0133,0.0132,0.0137,0.0137,0.0137,0.0141,0.0143,0.0147,0.0148,0.0137,0.0139,0.015,0.0118,0.0128,0.0126,0.0122,0.0118,0.0116,0.0116,0.015,0,0,0,0,0,0.0106,0.0116,0.0121,0.013,0.013,0.0132,0.0132,0.0133,0.0137,0.0139,0.0141,0.0138,0.0129,0.0129,0.0122,0.0117,0.0106,0.0099,0.0097,0.0095,0.0094,0.0058,0.0052,0.0114,0.0114,0.0114,0,0,0.0109,0.0116,0.0123,0.0129,0.0131,0.0132,0.0132,0.0132,0.0131,0.0138,0.014,0.013,0.0124,0.0113,0.0107,0.0115,0.0072,0.0093,0.0091,0.0091,0.0055,0.0049,0.0044,0.0113,0.0113,0.0114,0,0,0.0115,0.0123,0.0131,0.013,0.0129,0.013,0.0128,0.0129,0.0127,0.0128,0.0123,0.0107,0.0107,0.0092,0.0086,0.0065,0.0056,0.0057,0.005,0.0015,0.001,0.0005,-0.0013,-0.0019,0.006,0.006,0.006,0,0.0115,0.0129,0.013,0.0132,0.0134,0.0128,0.0131,0.0127,0.0129,0.0124,0.0127,0.0102,0.0094,0.0069,0.0059,0.0058,0.0045,0.0065,0.0012,0.0007,0.0003,-0.0015,-0.0022,0.0059,0.0059,0.0059,0.0059,0,0.0125,0.0132,0.0135,0.014,0.0138,0.014,0.0134,0.0129,0.0126,0.012,0.0096,0.0082,0.0067,0.0051,0.0053,0.0009,0.0013,0.0011,0.0022,-0.0004,-0.0021,-0.0028,0.0058,0.0058,0.0058,0.0059,0,0,0.0136,0.0142,0.0142,0.0149,0.0144,0.0147,0.0138,0.0129,0.0128,0.0108,0.0099,0.0062,0.0049,0.0039,0.0024,-0.0009,-0.0055,-0.0011,-0.0012,-0.0024,-0.0121,-0.0109,-0.0115,-0.0066,-0.0067,-0.0069,-0.0117,0,0.0142,0.0153,0.0151,0.0161,0.0168,0.0158,0.0155,0.0143,0.0133,0.0122,0.0083,0.0072,0.0046,0.0041,-0.0002,-0.0034,-0.0075,-0.0041,-0.0097,-0.0099,-0.0081,-0.0123,-0.0073,-0.0122,-0.0124,-0.0125,-0.0126,0,0.0152,0.016,0.0171,0.0181,0.0183,0.0185,0.0182,0.0178,0.0151,0.0143,0.0108,0.0088,0.0039,0.0023,-0.0065,-0.004,-0.0087,-0.0119,-0.0121,-0.0111,-0.01,-0.0093,-0.0139,-0.0138,-0.0137,-0.0136,-0.0135,0,0.0166,0.0175,0.0188,0.0191,0.0196,0.0198,0.0199,0.0182,0.019,0.0156,0.0161,0.0093,0.0079,-0.0002,-0.0067,-0.0068,-0.0158,-0.0165,-0.0204,-0.0202,-0.0192,-0.0186,-0.0245,-0.0245,-0.0245,-0.0244,-0.0244,0,0.0177,0.0189,0.0198,0.0207,0.0226,0.0219,0.0232,0.0224,0.0219,0.0232,0.0175,0.0171,0.0071,0.0014,-0.0064,-0.0148,-0.016,-0.0215,-0.0222,-0.0194,-0.0188,-0.0197,-0.019,-0.0246,-0.0246,-0.0245,-0.0245,0,0.0189,0.0194,0.0214,0.0227,0.0235,0.0248,0.0271,0.0282,0.0272,0.0287,0.0284,0.0233,0.0157,0.0058,-0.0059,-0.0126,-0.0216,-0.0247,-0.0198,-0.0199,-0.0239,-0.0233,-0.0301,-0.0301,-0.0301,-0.0301,-0.0301,0,0.0196,0.0207,0.0235,0.0253,0.0261,0.0282,0.0301,0.0308,0.0325,0.0327,0.034,0.0281,0.0231,0.0086,-0.0035,-0.0189,-0.0214,-0.0263,-0.0275,-0.0249,-0.0249,-0.0242,-0.0236,-0.0301,-0.0301,-0.0301,-0.0301,0,0.0209,0.0219,0.0238,0.0278,0.0305,0.0338,0.0366,0.039,0.04,0.0397,0.0397,0.032,0.0235,0.0104,-0.0013,-0.0127,-0.0233,-0.0265,-0.0266,-0.0278,-0.025,-0.0249,-0.0242,-0.0302,-0.0302,-0.0302,-0.0302,0,0.0221,0.0236,0.0264,0.0299,0.0341,0.0383,0.0395,0.0422,0.0443,0.0449,0.0448,0.0354,0.0299,0.0135,0.0026,-0.0083,-0.012,-0.0163,-0.017,-0.0171,-0.0124,-0.007,-0.0081,0,0,0,0,0,0.0229,0.0249,0.0284,0.0326,0.037,0.0396,0.0437,0.0445,0.046,0.0474,0.0467,0.0391,0.0238,0.0167,0.006,0.0001,-0.0155,-0.0131,-0.0211,-0.0304,-0.0304,-0.0271,0,0,0,0,0,0,0.0235,0.0267,0.0284,0.0343,0.0377,0.0429,0.0459,0.0471,0.0474,0.0476,0.04,0.0362,0.021,0.0307,0.006,0.0024,-0.0043,-0.0204,-0.0207,-0.0305,-0.0304,-0.0304,-0.027,0,0,0,0,0]}]]